Temp
4 4 5 7 7 7 6 5 5 5 5 4 5 8 10 8 7 8 9 9 9 9 9 10 10 10 10 9 9 9 9 8 8 8 8 7 7 7 6 6 5 4 4 4
3 6 6 5 5 4 4 3 5 6 4 4 4 6 10 7 8 8 8 8 9 9 9 10 9 10 10 9 9 9 9 8 8 8 8 7 7 6 6 5 4 4 4 4
3 6 5 4 4 3 2 4 5 4 4 4 3 5 9 11 7 8 8 8 9 9 9 9 9 9 9 9 9 9 9 8 8 8 7 7 6 6 5 5 5 4 3 4
2 2 3 3 3 1 2 3 4 3 1 2 3 3 9 12 9 8 8 9 9 9 9 9 9 9 9 9 9 9 9 9 8 8 7 6 6 6 6 6 4 4 3 3
4 4 3 3 5 2 3 2 2 2 2 2 3 2 6 11 9 9 9 9 9 9 8 8 8 9 9 9 9 9 9 9 8 8 7 6 6 5 5 4 3 3 3 2
4 3 2 2 1 1 1 1 1 2 2 1 3 3 4 8 12 10 7 8 8 8 7 8 8 8 8 8 8 8 8 8 8 8 6 5 5 5 4 3 2 3 2 2
2 2 3 1 1 2 1 1 0 1 1 1 3 3 3 11 11 8 6 7 6 7 7 8 8 8 8 7 8 8 8 8 8 7 6 4 3 4 3 2 1 2 2 1
-1 -0 2 2 2 2 1 1 0 1 1 2 4 3 4 5 5 5 5 5 5 5 6 7 8 8 8 7 7 7 7 7 7 6 5 3 3 2 1 1 1 0 1 0
-3 -1 2 1 0 0 2 -1 0 0 1 1 2 3 4 4 4 4 4 4 4 4 5 6 7 7 7 7 8 8 8 8 7 6 5 2 1 1 1 1 -1 -0 -1 -2
-3 -3 -0 1 -0 0 -0 1 -0 -1 -1 -1 1 2 3 4 3 4 4 4 2 3 4 5 6 7 7 8 8 8 8 8 7 5 3 2 1 1 -1 -2 -2 -1 -2 -4
-5 -5 -4 -3 -2 -2 -1 -1 -1 -1 -1 -0 1 2 -1 -1 -1 -0 1 1 2 2 4 5 6 6 7 7 8 8 8 7 6 3 3 3 1 1 0 -4 -3 -3 -4 -5
-5 -6 -6 -5 -3 -3 -4 -3 -5 -5 -4 -4 -3 -2 -3 -4 -3 -2 -1 -1 1 1 1 3 4 4 5 5 4 4 4 4 3 3 2 -0 -1 -0 -0 -2 -3 -3 -4 -4
-7 -7 -7 -4 -4 -4 -6 -6 -5 -5 -5 -5 -5 -4 -3 -4 -4 -4 -3 -3 -2 -2 -0 2 2 3 3 3 3 3 2 1 1 1 -0 -0 0 -0 -1 -3 -5 -4 -4 -4
-7 -7 -7 -7 -6 -6 -6 -6 -6 -6 -6 -5 -6 -5 -2 -2 -1 -3 -2 -1 -2 -1 -0 -0 1 2 2 2 2 2 1 0 -0 -0 -1 -1 -1 -1 -1 -3 -6 -5 -5 -6
-7 -7 -7 -7 -6 -6 -6 -4 -4 -5 -5 -6 -5 -5 -3 -1 -2 -1 -0 0 -0 -1 -1 -0 1 1 1 0 1 1 0 -1 -1 -1 -1 -1 -1 -1 -2 -3 -6 -5 -6 -6
-8 -7 -7 -7 -6 -6 -7 -4 -3 -4 -4 -4 -5 -4 -2 -3 -3 -1 -1 -2 0 1 -0 -0 -1 -1 0 -0 -1 -0 -0 -1 -1 -2 -1 -1 -2 -2 -3 -3 -6 -6 -6 -5
-9 -9 -8 -8 -8 -8 -8 -3 -3 -4 -4 -4 -4 -4 -5 -3 -2 -3 -2 -2 -1 -0 1 -1 -1 -1 -0 -1 -1 -1 -1 -1 -2 -2 -2 -2 -2 -3 -3 -3 -6 -7 -6 -5
-9 -9 -10 -10 -9 -11 -6 -5 -6 -5 -4 -5 -4 -4 -5 -4 -2 -2 -3 -3 -1 0 -0 -0 -0 -1 -0 -1 -1 -1 -1 -1 -2 -2 -2 -3 -3 -3 -3 -4 -6 -7 -6 -5
-9 -10 -11 -9 -9 -8 -5 -6 -6 -7 -6 -6 -5 -4 -4 -4 -3 -3 -4 -3 -3 -2 -0 0 -1 -1 -1 -1 -1 -1 -1 -1 -2 -2 -3 -3 -3 -3 -3 -4 -7 -7 -6 -5
-9 -9 -11 -10 -9 -9 -6 -6 -6 -7 -6 -6 -6 -5 -5 -4 -4 -4 -3 -3 -3 -3 -2 -1 -1 -1 -1 -1 -1 -1 -2 -2 -2 -3 -3 -4 -4 -4 -4 -4 -6 -7 -6 -5
-10 -10 -10 -10 -10 -9 -8 -8 -7 -6 -7 -7 -6 -6 -5 -6 -5 -5 -5 -4 -4 -3 -3 -3 -3 -2 -1 -1 -1 -1 -1 -2 -2 -3 -3 -3 -4 -4 -5 -5 -6 -6 -6 -6
-10 -10 -10 -10 -9 -10 -9 -9 -9 -8 -8 -8 -7 -7 -7 -6 -6 -5 -5 -5 -5 -4 -4 -4 -4 -1 -1 -1 -1 -1 -2 -2 -2 -2 -3 -5 -5 -5 -5 -5 -6 -6 -5 -6
-10 -9 -9 -10 -9 -8 -9 -10 -10 -9 -9 -8 -7 -7 -6 -6 -6 -6 -5 -5 -6 -5 -5 -5 -3 -2 -2 -1 -1 -2 -2 -3 -3 -3 -3 -5 -5 -5 -6 -6 -6 -6 -6 -6
-9 -9 -10 -10 -8 -9 -9 -9 -9 -9 -8 -7 -7 -7 -7 -6 -6 -5 -4 -4 -5 -5 -5 -4 -3 -3 -2 -2 -2 -2 -2 -3 -3 -3 -4 -4 -4 -6 -6 -6 -7 -7 -7 -6
-9 -10 -9 -9 -9 -9 -9 -8 -9 -7 -7 -7 -7 -7 -6 -6 -6 -5 -4 -4 -4 -4 -4 -4 -3 -3 -3 -3 -2 -3 -3 -3 -3 -3 -4 -5 -5 -6 -6 -6 -7 -7 -7 -7
-9 -9 -10 -9 -9 -10 -9 -8 -8 -7 -6 -6 -6 -7 -6 -6 -6 -6 -6 -6 -5 -5 -5 -4 -4 -4 -3 -3 -3 -3 -3 -3 -3 -3 -5 -5 -5 -5 -6 -7 -7 -7 -7 -7
Height
3078 3074 3062 3065 3068 3070 3069 3063 3058 3060 3065 3065 3064 3049 3040 3050 3051 3050 3050 3051 3050 3048 3051 3051 3052 3052 3053 3056 3059 3061 3063 3066 3067 3067 3068 3070 3072 3075 3077 3080 3084 3087 3090 3093
3073 3053 3060 3062 3062 3060 3061 3058 3045 3049 3055 3061 3058 3042 3029 3038 3039 3041 3042 3041 3042 3042 3043 3043 3043 3044 3045 3047 3050 3052 3055 3057 3059 3060 3062 3063 3065 3069 3071 3073 3077 3080 3083 3087
3062 3053 3058 3059 3056 3056 3056 3044 3045 3047 3051 3049 3050 3037 3021 3021 3028 3031 3031 3032 3033 3032 3033 3034 3034 3035 3037 3039 3041 3044 3047 3048 3050 3052 3053 3055 3058 3060 3062 3066 3068 3072 3076 3079
3050 3050 3052 3055 3049 3059 3046 3053 3049 3046 3050 3042 3044 3032 3016 3010 3014 3019 3019 3021 3022 3022 3022 3023 3024 3025 3026 3031 3033 3035 3038 3041 3041 3043 3044 3049 3051 3053 3056 3058 3062 3065 3069 3071
3033 3044 3047 3043 3042 3054 3036 3046 3045 3043 3042 3042 3027 3030 2998 3004 2999 3001 3005 3008 3009 3011 3012 3010 3013 3015 3017 3020 3022 3025 3026 3030 3031 3034 3036 3039 3043 3045 3048 3050 3053 3056 3060 3064
3030 3039 3038 3039 3042 3044 3044 3038 3036 3036 3033 3028 3009 3013 3009 2997 2991 2987 2990 2996 2999 3001 3000 3000 3000 3002 3004 3007 3009 3013 3016 3020 3021 3023 3029 3033 3037 3039 3040 3042 3045 3049 3054 3058
3032 3027 3028 3039 3037 3037 3039 3037 3032 3028 3016 3005 3003 3014 3004 2983 2980 2983 2985 2982 2986 2989 2990 2991 2990 2988 2989 2993 2998 3002 3005 3009 3011 3012 3019 3024 3026 3030 3033 3037 3040 3043 3047 3051
3030 3020 3022 3025 3026 3026 3026 3027 3029 3009 3009 2997 3002 2988 2979 2986 2984 2988 2982 2979 2975 2976 2977 2979 2980 2978 2976 2982 2988 2991 2994 2997 2999 3003 3009 3012 3017 3021 3023 3029 3032 3036 3040 3043
3023 3020 3014 3016 3021 3023 3011 3010 3007 3011 3008 2996 2990 2981 2975 2977 2977 2974 2974 2973 2970 2967 2965 2966 2967 2968 2968 2971 2976 2981 2984 2986 2988 2993 2999 3003 3007 3009 3013 3019 3024 3029 3032 3034
3022 3012 3010 3008 3009 3011 3009 3007 3000 2997 2994 2985 2969 2971 2965 2970 2968 2968 2963 2963 2960 2958 2956 2957 2957 2959 2960 2963 2965 2969 2973 2974 2980 2985 2992 2994 2997 3003 3003 3013 3015 3021 3024 3027
3015 3012 3004 3006 3002 3004 3007 2998 2996 2983 2974 2965 2959 2959 2964 2964 2955 2956 2956 2957 2955 2953 2952 2950 2949 2949 2951 2955 2958 2960 2962 2966 2971 2978 2982 2986 2987 2993 2996 3003 3008 3013 3016 3020
3013 3008 3005 3000 2997 2991 3001 2992 2999 2974 2978 2973 2957 2953 2950 2954 2949 2951 2953 2950 2950 2946 2948 2944 2943 2945 2946 2948 2950 2953 2956 2959 2964 2970 2976 2976 2979 2982 2991 2994 3001 3007 3012 3015
3009 3007 3003 2993 2996 2988 2989 2987 2986 2987 2979 2971 2965 2954 2949 2950 2951 2948 2948 2952 2945 2945 2940 2940 2939 2939 2942 2945 2947 2948 2949 2953 2958 2963 2969 2971 2974 2976 2980 2988 2996 3002 3006 3011
3008 3004 3006 3003 2994 2988 2985 2984 2980 2984 2975 2964 2967 2960 2952 2951 2944 2943 2948 2951 2948 2943 2942 2939 2938 2939 2941 2943 2944 2944 2948 2951 2956 2962 2964 2965 2970 2972 2978 2982 2990 2996 3001 3004
3001 3000 2998 2993 2989 2987 2983 2973 2973 2972 2964 2974 2960 2961 2944 2935 2940 2943 2942 2948 2945 2940 2942 2939 2937 2938 2938 2940 2941 2942 2944 2947 2951 2954 2957 2962 2964 2969 2972 2976 2983 2989 2993 2996
2995 2991 2988 2981 2981 2982 2977 2971 2966 2966 2965 2963 2957 2940 2940 2937 2940 2934 2942 2945 2940 2934 2939 2933 2937 2938 2938 2936 2939 2940 2941 2945 2948 2951 2956 2958 2963 2966 2968 2973 2976 2981 2984 2994
2988 2986 2982 2979 2979 2978 2975 2964 2958 2955 2953 2950 2943 2945 2939 2925 2931 2933 2932 2933 2927 2929 2924 2928 2935 2938 2936 2935 2938 2939 2941 2944 2945 2948 2951 2953 2958 2963 2967 2969 2971 2975 2980 2988
2980 2980 2981 2974 2973 2972 2958 2956 2954 2949 2945 2945 2946 2940 2930 2928 2929 2922 2929 2925 2919 2918 2920 2924 2929 2931 2932 2933 2936 2936 2937 2940 2943 2945 2949 2951 2954 2958 2962 2964 2965 2970 2977 2981
2975 2975 2973 2970 2962 2954 2949 2949 2948 2945 2942 2940 2940 2935 2926 2926 2922 2921 2921 2917 2916 2915 2915 2919 2921 2926 2925 2928 2933 2933 2934 2937 2939 2942 2945 2948 2951 2953 2956 2958 2960 2967 2971 2976
2971 2970 2969 2966 2962 2954 2946 2946 2945 2944 2939 2937 2933 2927 2929 2924 2922 2920 2917 2914 2911 2912 2909 2913 2918 2921 2921 2923 2927 2928 2929 2930 2933 2937 2940 2943 2946 2949 2950 2952 2954 2963 2967 2969
2965 2964 2962 2960 2959 2951 2944 2940 2940 2938 2937 2931 2929 2926 2924 2920 2919 2913 2911 2912 2908 2903 2901 2908 2913 2915 2914 2916 2920 2920 2924 2926 2928 2932 2934 2936 2940 2943 2945 2946 2951 2957 2962 2964
2960 2959 2956 2954 2950 2946 2942 2939 2937 2933 2928 2925 2922 2918 2911 2907 2909 2909 2907 2907 2903 2901 2901 2902 2909 2910 2914 2916 2914 2917 2920 2924 2926 2927 2930 2933 2934 2937 2938 2942 2946 2949 2956 2960
2955 2953 2952 2951 2945 2943 2940 2937 2933 2929 2926 2924 2918 2912 2904 2904 2906 2906 2905 2905 2904 2904 2904 2905 2907 2906 2909 2908 2912 2913 2916 2919 2922 2925 2926 2928 2929 2930 2933 2936 2939 2944 2950 2954
2945 2945 2943 2941 2936 2936 2935 2932 2930 2927 2923 2920 2915 2910 2909 2906 2904 2900 2899 2899 2900 2898 2899 2899 2898 2899 2905 2908 2909 2909 2911 2913 2917 2919 2922 2923 2923 2923 2925 2928 2932 2938 2944 2948
2939 2938 2934 2932 2928 2927 2927 2926 2924 2922 2920 2916 2912 2909 2907 2905 2901 2894 2892 2894 2894 2893 2893 2895 2894 2898 2902 2903 2902 2903 2906 2908 2911 2913 2916 2917 2916 2918 2921 2924 2928 2935 2941 2946
2925 2925 2927 2922 2924 2920 2918 2918 2917 2915 2913 2911 2908 2907 2905 2903 2900 2894 2891 2891 2891 2891 2892 2893 2894 2896 2898 2897 2897 2898 2900 2902 2905 2907 2909 2912 2913 2913 2914 2918 2924 2931 2937 2939
Wind_Speed
25 31 43 40 37 36 37 40 44 42 37 33 35 47 52 40 40 40 41 42 39 38 33 34 36 35 36 39 40 39 40 39 33 28 28 36 40 39 41 39 36 34 30 27
29 46 39 35 36 39 39 42 53 48 37 25 30 47 55 48 46 45 45 42 39 42 33 34 34 40 38 36 36 38 39 41 38 31 24 30 38 40 41 40 37 34 31 28
39 41 8 21 35 40 41 51 49 45 36 36 30 45 57 55 48 45 45 43 39 41 41 38 34 35 39 42 40 36 34 38 40 35 29 25 33 37 40 41 39 36 33 31
41 40 41 40 39 28 43 34 40 42 31 22 12 18 53 54 52 48 46 42 39 41 41 46 42 40 42 40 39 38 35 37 40 39 33 28 27 32 34 39 39 36 36 31
50 38 30 35 39 41 57 38 32 36 33 31 45 18 58 53 59 56 50 43 39 35 35 40 47 47 45 40 37 38 40 41 42 40 36 32 29 32 33 39 42 39 37 31
42 41 40 36 31 24 30 37 37 36 37 17 61 37 30 54 53 42 21 23 28 25 23 31 41 46 50 50 43 39 40 43 45 47 34 34 32 32 33 37 41 40 37 33
31 39 42 39 47 48 33 34 8 8 15 15 48 27 39 58 56 41 36 33 37 38 41 42 41 43 49 49 45 43 43 43 45 51 40 37 39 38 33 33 38 40 35 32
24 30 32 22 31 42 41 43 24 21 11 18 26 18 47 47 44 43 46 50 36 35 40 38 38 49 48 44 38 38 36 39 49 52 50 33 31 35 29 33 38 39 35 33
11 24 46 41 38 22 36 37 49 42 50 28 41 43 38 41 33 36 36 38 42 38 34 30 34 35 46 38 40 38 37 40 41 49 53 29 27 36 28 27 39 38 37 35
13 17 36 37 32 39 39 34 12 25 16 28 18 35 39 28 25 29 29 33 28 31 38 40 35 38 40 38 36 36 37 37 41 46 52 36 23 34 39 37 36 39 40 38
15 9 10 17 9 15 30 29 38 27 21 11 20 12 9 12 15 19 21 24 22 11 21 23 23 29 34 39 38 33 36 41 36 46 56 46 31 31 29 40 33 37 43 31
33 14 10 19 23 20 33 8 21 5 10 23 8 5 14 28 13 5 14 15 20 8 6 7 11 11 19 22 16 19 24 28 28 44 53 29 26 24 25 29 33 37 36 31
20 11 12 22 12 13 28 31 18 26 15 7 5 10 25 30 29 25 25 25 23 18 15 7 8 7 6 10 12 14 13 14 21 42 34 15 34 27 29 30 35 35 31 32
15 13 16 13 24 27 35 37 25 22 11 12 22 36 36 26 29 28 19 21 21 21 17 18 13 9 13 15 18 18 17 17 16 23 19 30 30 24 26 28 35 33 34 37
15 19 20 25 26 29 33 38 30 28 33 26 44 38 33 22 23 16 17 19 21 18 25 24 18 15 12 11 11 15 18 17 16 16 18 19 22 23 23 27 36 37 40 43
19 25 23 29 26 27 25 32 37 42 34 28 30 36 27 28 27 13 23 27 19 22 26 21 23 21 13 11 11 12 13 17 18 19 20 21 24 24 23 28 36 42 46 40
21 20 14 17 19 15 15 33 37 30 26 21 24 33 34 29 28 26 28 34 30 31 24 22 24 22 16 8 7 9 11 17 20 20 17 21 24 26 29 33 39 46 41 37
22 24 18 18 21 6 20 19 24 26 23 23 28 29 26 26 31 26 28 35 33 28 27 26 25 24 20 17 14 11 14 19 19 18 20 19 24 32 36 36 41 46 38 34
8 18 12 8 11 22 31 14 12 13 8 12 20 23 25 20 27 27 23 29 28 24 24 25 18 18 15 14 15 13 14 16 20 25 24 26 35 29 31 37 44 46 41 42
6 4 14 9 6 4 14 18 19 18 20 13 19 21 30 27 23 22 19 30 27 14 18 19 16 13 14 18 18 17 16 16 17 20 21 25 28 32 28 32 41 45 46 29
12 10 16 22 14 16 15 18 29 21 20 18 22 17 28 23 18 25 10 12 12 24 10 18 16 13 10 12 14 15 15 13 10 11 10 18 28 30 33 24 39 39 35 36
7 6 10 10 9 8 19 11 16 14 19 25 20 22 17 15 14 20 12 14 12 9 10 13 11 12 11 13 12 12 13 12 12 15 14 20 24 29 32 26 40 40 39 30
12 12 15 16 23 31 26 31 21 19 24 27 24 20 25 4 9 15 20 15 17 8 9 7 10 11 10 9 14 17 18 15 17 19 19 20 25 27 35 28 41 37 31 25
22 20 27 24 33 33 29 25 23 21 25 24 20 18 10 12 18 17 11 16 15 11 8 8 9 10 14 14 11 14 17 19 21 24 24 23 25 31 32 26 39 45 35 32
32 30 33 35 37 34 26 21 20 19 21 23 20 13 8 12 18 24 11 12 13 16 16 15 12 11 14 18 18 18 18 18 19 23 25 22 26 29 28 27 30 39 31 27
40 39 35 40 36 30 24 21 20 18 21 21 17 9 5 10 16 11 5 4 7 13 17 17 14 17 18 18 20 20 21 20 21 22 23 19 26 30 30 28 30 32 25 23
Wind_Direction
264 257 251 263 271 276 272 265 269 272 277 286 281 278 279 279 277 273 266 262 257 260 266 254 254 254 255 255 257 258 258 258 261 273 268 252 243 239 239 238 234 236 238 245
257 259 262 266 264 261 262 264 266 275 279 272 283 279 277 277 275 277 276 271 266 259 260 249 258 254 253 252 257 258 260 259 262 268 271 262 251 244 241 237 237 237 236 245
258 260 312 272 265 256 257 257 267 268 279 278 282 280 278 278 282 279 276 277 269 258 251 252 253 257 255 252 261 265 266 263 263 263 264 266 250 243 241 240 236 237 232 240
262 273 261 256 259 251 262 266 273 275 275 267 271 277 276 277 280 278 279 277 274 265 257 252 256 257 255 258 261 266 266 261 264 265 260 261 254 251 249 243 237 237 236 235
256 258 267 268 271 254 261 270 275 270 270 270 268 242 263 280 281 280 282 280 276 263 258 262 257 256 258 257 255 260 261 255 254 263 255 251 251 250 241 239 235 230 232 234
259 253 254 261 270 263 266 266 267 261 260 255 256 245 268 266 276 278 266 266 269 263 258 259 260 257 256 256 251 251 256 255 258 255 251 262 256 260 250 240 234 232 232 233
273 268 268 268 269 263 253 260 276 255 237 250 262 273 240 263 266 273 264 270 264 267 273 265 256 258 253 253 257 252 253 254 257 257 244 242 258 256 249 246 236 232 232 234
273 285 271 279 271 273 262 242 234 251 249 256 264 239 248 263 273 276 270 275 273 267 271 264 258 250 251 250 259 256 250 256 255 255 241 234 243 248 235 241 234 230 227 229
272 258 266 268 270 260 264 236 248 251 257 271 261 267 267 264 263 265 274 276 275 273 270 269 250 256 242 262 262 252 255 260 259 256 244 233 247 237 229 228 230 226 225 224
273 283 270 275 273 261 249 260 237 230 242 247 235 248 251 263 264 265 270 275 280 278 271 266 254 249 249 254 252 247 248 253 258 254 237 226 235 242 224 224 225 229 229 221
293 285 286 288 290 300 273 258 252 257 240 244 243 243 255 251 243 252 251 254 253 262 253 252 250 243 246 253 255 254 253 253 255 248 234 226 237 250 228 222 223 225 230 215
289 309 296 301 321 283 280 280 333 7 331 297 311 166 78 2 47 335 308 274 255 247 289 238 223 230 232 236 249 260 266 267 263 246 228 228 262 232 238 223 221 225 230 219
303 284 321 306 277 291 330 334 317 316 280 303 1 294 320 328 335 356 355 327 9 352 343 327 305 299 293 300 278 261 251 244 246 233 221 248 256 242 216 215 216 216 210 208
296 275 278 256 282 301 300 306 315 309 280 315 288 291 309 322 332 345 332 327 303 308 330 325 320 277 273 273 272 273 267 261 239 243 228 245 235 236 230 213 212 214 211 215
252 262 277 284 292 301 293 300 297 303 308 281 285 285 305 342 329 340 328 310 277 274 282 296 300 298 286 277 276 264 265 259 253 257 243 240 251 249 235 219 207 212 212 212
250 271 285 294 306 293 293 288 278 279 291 294 285 296 333 325 313 309 305 305 279 273 264 271 291 283 272 276 267 254 249 248 244 231 228 234 240 246 241 232 211 212 218 219
268 272 272 271 287 276 271 290 294 291 287 300 301 298 294 294 288 288 286 294 295 286 255 249 265 271 273 247 232 238 243 241 240 238 235 244 245 242 248 246 216 218 219 223
269 269 257 270 282 217 281 286 294 282 280 277 274 290 303 300 278 269 286 289 294 292 253 240 254 254 262 234 230 238 232 235 227 237 239 237 238 243 241 239 219 221 222 210
273 264 245 239 249 284 298 319 297 323 292 246 272 286 301 304 285 282 289 283 285 282 243 237 238 253 232 238 234 233 236 240 243 233 235 247 245 243 252 240 220 219 219 228
270 312 255 284 266 261 285 287 262 296 279 276 283 280 290 296 312 273 279 267 257 234 223 220 225 232 244 236 232 230 239 253 243 246 243 244 248 252 251 251 228 216 223 218
303 288 264 264 252 272 291 297 256 274 296 300 314 299 297 285 286 294 298 286 292 232 212 225 226 235 248 234 230 239 242 206 201 241 253 250 248 249 242 249 218 216 222 230
285 283 271 273 249 255 331 327 345 303 336 331 323 321 298 271 297 307 315 315 318 311 229 202 228 238 229 219 216 222 207 230 249 240 251 247 245 243 243 244 218 219 218 212
255 254 276 270 274 299 316 319 321 317 326 320 314 326 346 323 328 312 263 276 289 281 308 287 246 257 252 249 239 228 231 235 238 247 246 246 247 241 240 246 215 215 209 227
272 274 286 288 297 302 301 309 299 306 298 309 305 297 315 338 339 318 272 259 257 263 274 295 258 240 234 233 237 239 241 237 236 245 249 254 249 239 241 238 220 222 234 247
280 281 281 290 301 302 297 293 294 279 290 305 294 299 321 336 332 328 278 265 258 256 260 268 258 244 239 230 224 222 229 229 236 245 249 250 251 239 237 243 226 225 228 230
278 284 282 289 295 296 290 288 282 272 282 296 288 277 307 345 353 11 27 292 253 247 260 267 257 243 239 242 234 231 230 232 235 239 244 250 254 246 243 237 229 230 227 225